Houston Clover, TX

5:23 PM CDT on March 29, 2017 (GMT -0500)
Clover

Weather History for KLVJ - May, 2013

Change the Weather History Date:

Saturday, May 4, 2013

  Actual Average (KEFD) Record (KEFD)
Temperature  
Mean Temperature 61 °F -  
Max Temperature 78 °F 81 °F 91 °F (2012)
Min Temperature 44 °F 65 °F 50 °F (2013)
Degree Days  
Heating Degree Days 4    
Growing Degree Days 11 (Base 50)    
Moisture  
Dew Point 40 °F    
Average Humidity 49    
Maximum Humidity 79    
Minimum Humidity 24    
Precipitation  
Precipitation 0.00 in - - ()
Sea Level Pressure  
Sea Level Pressure 30.00 in    
Wind  
Wind Speed 4 mph (WSW)    
Max Wind Speed 14 mph    
Max Gust Speed 21 mph    
Visibility 10 miles    
Events      
Averages and records for this station are not official NWS values.
T = Trace of Precipitation, MM = Missing Value Source: NWS Daily Summary

Daily Weather History Graph

Daily Weather History Graph

Search for Another Location

Airport or City:

Trip Planner

Search our weather history database for the weather conditions in past years. The results will help you decide how hot, cold, wet, or windy it might be!

Date:

Astronomy

May. 04, 2013 Rise Set
Actual Time 6:36 AM CDT 7:59 PM CDT
Civil Twilight 6:10 AM CDT 8:25 PM CDT
Nautical Twilight 5:40 AM CDT 8:55 PM CDT
Astronomical Twilight 5:08 AM CDT 9:27 PM CDT
Moon 3:11 AM CDT (5/4) 3:19 PM CDT (5/4)
Length of Visible Light 14h 14m
Length of Day
13h 23m
Waning Crescent, 27% of the Moon is Illuminated
May 4
Waning Crescent
May 9
New
May 17
First Quarter
May 24
Full
May 31
Last Quarter

Hourly Weather History & Observations

Time (CDT) Temp. Dew Point Humidity Pressure Visibility Wind Dir Wind Speed Gust Speed Precip Events Conditions
12:53 AM 48.0 °F 39.9 °F 74% 30.10 in 10.0 mi Calm Calm - N/A   Clear
1:53 AM 46.9 °F 39.9 °F 77% 30.08 in 10.0 mi Calm Calm - N/A   Clear
2:53 AM 45.0 °F 37.9 °F 76% 30.06 in 10.0 mi Calm Calm - N/A   Clear
3:53 AM 44.1 °F 37.9 °F 79% 30.04 in 10.0 mi Calm Calm - N/A   Clear
4:53 AM 46.0 °F 37.0 °F 71% 30.04 in 10.0 mi Calm Calm - N/A   Clear
5:53 AM 44.1 °F 37.0 °F 76% 30.04 in 10.0 mi Calm Calm - N/A   Clear
6:53 AM 44.1 °F 37.9 °F 79% 30.05 in 10.0 mi Calm Calm - N/A   Clear
7:53 AM 51.1 °F 39.9 °F 66% 30.06 in 10.0 mi Calm Calm - N/A   Clear
8:53 AM 60.1 °F 37.9 °F 44% 30.06 in 10.0 mi SW 5.8 mph - N/A   Clear
9:53 AM 64.9 °F 37.0 °F 36% 30.06 in 10.0 mi SW 9.2 mph 17.3 mph N/A   Clear
10:53 AM 68.0 °F 36.0 °F 31% 30.06 in 10.0 mi SW 10.4 mph - N/A   Clear
11:53 AM 71.1 °F 37.0 °F 29% 30.04 in 10.0 mi WSW 10.4 mph 19.6 mph N/A   Clear
12:53 PM 73.9 °F 37.0 °F 26% 30.01 in 10.0 mi West 13.8 mph 19.6 mph N/A   Clear
1:53 PM 75.0 °F 37.9 °F 26% 29.98 in 10.0 mi WSW 10.4 mph 18.4 mph N/A   Clear
2:53 PM 77.0 °F 37.9 °F 24% 29.95 in 10.0 mi SW 11.5 mph 17.3 mph N/A   Clear
3:53 PM 78.1 °F 39.0 °F 25% 29.92 in 10.0 mi West 11.5 mph 20.7 mph N/A   Clear
4:53 PM 78.1 °F 37.9 °F 24% 29.90 in 10.0 mi West 13.8 mph 19.6 mph N/A   Clear
5:53 PM 78.1 °F 37.9 °F 24% 29.89 in 10.0 mi West 10.4 mph 17.3 mph N/A   Clear
6:53 PM 75.9 °F 39.9 °F 27% 29.89 in 10.0 mi WSW 8.1 mph 16.1 mph N/A   Clear
7:53 PM 72.0 °F 42.1 °F 34% 29.90 in 10.0 mi SSW 4.6 mph - N/A   Clear
8:53 PM 68.0 °F 48.9 °F 50% 29.92 in 10.0 mi SSW 6.9 mph - N/A   Clear
9:53 PM 64.9 °F 48.0 °F 54% 29.94 in 10.0 mi SSW 5.8 mph - N/A   Clear
10:53 PM 63.0 °F 48.9 °F 60% 29.96 in 10.0 mi SW 3.5 mph - N/A   Clear
11:53 PM 61.0 °F 50.0 °F 67% 29.97 in 10.0 mi Calm Calm - N/A   Clear